Regional Weather Roundup
Issued by NWS

Home | Current Version | Previous Version | Graphics & Text | Print | Product List | Glossary On
Versions: 1 2 3 4 5 6 7 8 9 10 11 12 13 14 15 16 17 18 19 20 21 22 23 24 25 26 27 28 29 30 31 32 33 34 35 36 37 38 39 40 41 42 43 44 45 46 47 48 49 50
000
ASUS43 KMPX 180010
RWRMN
WEATHER ROUNDUP FOR MINNESOTA
NATIONAL WEATHER SERVICE TWIN CITIES/CHANHASSEN MN
600 PM CST WED DEC 17 2014


NOTE: "FAIR" INDICATES FEW OR NO CLOUDS BELOW 12,000 FEET WITH NO
SIGNIFICANT WEATHER AND/OR OBSTRUCTIONS TO VISIBILITY. N/A MEANS
CURRENT SKY AND/OR WEATHER CONDITIONS ARE NOT AVAILABLE.

MNZ060>063-068>070-180100-
   Twin Cities Metro

CITY           SKY/WX    TMP DP  RH WIND       PRES   REMARKS
TWIN CITIES    CLOUDY    18   9  68 NE6       30.32R WCI  10
6HR MIN TEMP:  17; 6HR MAX TEMP:  20;

ST PAUL        PTCLDY    17   9  70 N3        30.34R
CRYSTAL        PTCLDY    16   9  74 CALM      30.31R
BLAINE         PTCLDY    16  10  79 CALM      30.31S
LAKEVILLE      PTCLDY    16  10  79 NE5       30.30S WCI   9
EDEN PRAIRIE   CLOUDY    18   9  68 NE5       30.30S WCI  11
6HR MIN TEMP:  17; 6HR MAX TEMP:  21;

SOUTH ST PAUL  MOCLDY    18  10  73 CALM      30.32S
LAKE ELMO      FAIR      16  10  79 CALM      30.32R
$$
MNZ001>005-007-008-013>017-022>024-027-028-180100-
   Northwest Minnesota

CITY           SKY/WX    TMP DP  RH WIND       PRES   REMARKS
BEMIDJI        FAIR      13  10  87 CALM      30.26F
HALLOCK        PTCLDY    12   9  85 CALM      30.32F
ROSEAU         PTCLDY    12   9  85 CALM      30.31F
WARROAD        PTCLDY     9   5  85 NE3       30.31F
THIEF RVR FALL PTCLDY    12   9  85 CALM      30.31S
CROOKSTON      PTCLDY    14  10  85 E3        30.33S
FOSSTON        CLEAR      7   5  92 CALM      30.30S
DETROIT LAKES  PTCLDY    12  10  92 CALM      30.27F
MOORHEAD       CLEAR     14  12  92 NE5       30.31F WCI   6
PARK RAPIDS    PTCLDY    17  11  77 CALM      30.25S
MAHNOMEN       FAIR      11   9  88 N5        30.28F WCI   3
$$
MNZ006-009>011-018-025>026-180100-
   North Central Minnesota

CITY           SKY/WX    TMP DP  RH WIND       PRES   REMARKS
BAUDETTE       PTCLDY    11   7  84 N5        30.29F WCI   3
FLAG ISLAND    PTCLDY    16   7  67 NE5       30.31F WCI   9
INTL FALLS     PTCLDY     6   2  83 NE3       30.32S
6HR MIN TEMP:   5; 6HR MAX TEMP:  19;

WASKISH        PTCLDY     9   7  92 CALM      30.29F
BIG FORK       PTCLDY    10   7  85 CALM      30.30S
LONGVILLE      PTCLDY    10   9  92 CALM      30.28S
GRAND RAPIDS   PTCLDY    10   9  92 N5        30.26F WCI   2
CRANE LAKE     MOCLDY     5   3  92 CALM      30.34S
ORR            FAIR      10   7  85 CALM      30.28S
COOK           PTCLDY     9   7  92 CALM      30.30R
WALKER         FAIR      12   9  86 NE3       30.26F
$$
MNZ012-019>021-037-180100-
   Northeast Minnesota

CITY           SKY/WX    TMP DP  RH WIND       PRES   REMARKS
DULUTH         CLOUDY    19  13  77 NW3       30.26S
6HR MIN TEMP:  16; 6HR MAX TEMP:  20;

ELY            PTCLDY    10   9  92 CALM      30.29S
HIBBING        PTCLDY    10   6  84 CALM      30.28S
EVELETH        PTCLDY    14  10  85 CALM      30.30S
DULUTH HARBOR  CLOUDY    21  16  79 CALM      30.33S
TWO HARBORS    CLOUDY    23  16  74 NW5       30.28R WCI  17
SILVER BAY     MOCLDY    19  12  73 N3        30.28R
GRAND MARAIS     N/A     17   8  67 CALM      30.33R
G MARAIS ARPRT PTCLDY     9   3  78 N10       30.24R WCI  -6
$$
MNZ029>031-032-039>041-046>048-054>057-064-180100-
   West Central Minnesota

CITY           SKY/WX    TMP DP  RH WIND       PRES   REMARKS
FERGUS FALLS   CLEAR     12   9  85 CALM      30.32S
WHEATON        PTCLDY    10   7  85 CALM      30.32F
MORRIS         PTCLDY    10   7  85 NW6       30.29S WCI   1
ALEXANDRIA     FAIR      15   9  76 NE3       30.27S
ELBOW LAKE     FAIR      13   9  84 SW3       30.29R
WADENA         PTCLDY    10   9  92 CALM      30.26F
GLENWOOD       PTCLDY    12  10  92 NE5       30.28R WCI   4
APPLETON       PTCLDY    12   9  85 CALM      30.31S
BENSON         PTCLDY    12   9  85 CALM      30.30S
ORTONVILLE     PTCLDY    12   7  79 NW5       30.30S WCI   4
MADISON        PTCLDY    16  10  79 CALM      30.31S
WILLMAR        FAIR      16  10  79 CALM      30.30S
$$
MNZ033>034-036-042>043-049>051-058-059-180100-
   Central Minnesota

CITY           SKY/WX    TMP DP  RH WIND       PRES   REMARKS
ST CLOUD       PTCLDY    15   8  73 CALM      30.30S
6HR MIN TEMP:  15; 6HR MAX TEMP:  20;

SAUK CENTRE    FAIR      13   9  85 CALM      30.29R
PAYNESVILLE    MOCLDY    12   9  87 N6        30.29S WCI   3
AITKIN         PTCLDY    14   9  79 CALM      30.27S
PINE RIVER     PTCLDY    14  10  85 CALM      30.30S
BRAINERD       CLEAR     11   8  88 CALM      30.27F
STAPLES        PTCLDY    12  10  92 CALM      30.28R
LONG PRAIRIE   FAIR      12   9  85 CALM      30.27F
LITTLE FALLS   CLEAR     10   9  92 CALM      30.29F
LITCHFIELD     MOCLDY    16  12  86 CALM      30.30S
BUFFALO        MOCLDY    16  10  78 CALM      30.32S
MAPLE LAKE     PTCLDY    17  12  83 CALM      30.31S
$$
MNZ037-044-045-052-053-180100-
   East Central Minnesota

CITY           SKY/WX    TMP DP  RH WIND       PRES   REMARKS
PRINCETON      MOCLDY    12   9  85 CALM      30.30S
MORA           CLOUDY    16  10  79 CALM      30.31S
CAMBRIDGE      PTCLDY    14   7  73 CALM      30.29S
RUSH CITY      PTCLDY    14  10  83 CALM      30.31S
MOOSE LAKE     PTCLDY    16  12  86 CALM      30.28F
HINCKLEY       FAIR      18  12  79 CALM      30.30S
CLOQUET        FLURRIES  18  12  79 CALM      30.27F
MCGREGOR       PTCLDY    14  12  92 CALM      30.28F
$$
MNZ071>073-080-081-089-090-097-098-180100-
   Southwest Minnesota

CITY           SKY/WX    TMP DP  RH WIND       PRES   REMARKS
MONTEVIDEO     PTCLDY    12  10  92 CALM      30.31F
GRANITE FALLS  MOCLDY    11   8  89 W3        30.32S
CANBY          PTCLDY    11   9  92 CALM      30.30F
MARSHALL       PTCLDY    10  10 100 CALM      30.28F
REDWOOD FALLS  PTCLDY    13   9  84 NW6       30.30S WCI   4
OLIVIA         PTCLDY    16  12  86 CALM      30.30S
PIPESTONE      PTCLDY    14  12  92 CALM      30.24R
WINDOM           N/A     12   9  85 CALM      30.27S
WORTHINGTON    PTCLDY    16  10  79 NE5       30.27R WCI   9
JACKSON        PTCLDY    16  12  86 N5        30.27S WCI   9
TRACY          PTCLDY    11   9  90 CALM      30.28S
SLAYTON        PTCLDY    12  10  94 CALM      30.26S
$$
MNZ065>067-074>077-082>085-091>093-180100-
   South Central Minnesota

CITY           SKY/WX    TMP DP  RH WIND       PRES   REMARKS
MANKATO        CLEAR     18  10  73 N5        30.29S WCI  11
NEW ULM        CLEAR     16  12  86 NW3       30.30S
ST JAMES       CLEAR     16  12  86 W5        30.31S WCI   9
FAIRMONT       CLEAR     16   9  73 N3        30.28S
GLENCOE        CLEAR     18  13  82 CALM      30.29F
FARIBAULT      CLEAR     18  12  79 CALM      30.30R
OWATONNA       CLEAR     16  10  79 CALM      30.28R
WASECA         CLEAR     18  14  86 N3        30.30R
ALBERT LEA     CLEAR     18  16  93 CALM      30.28R
$$
MNZ078>079-086>088-094>096-180100-
   Southeast Minnesota

CITY           SKY/WX    TMP DP  RH WIND       PRES   REMARKS
ROCHESTER      CLOUDY    18  12  77 N7        30.27R WCI   9
6HR MIN TEMP:  16; 6HR MAX TEMP:  20; 6HR PCP: TRACE;

RED WING       FLURRIES  18  10  73 N5        30.31S WCI  11
STANTON        PTCLDY    18  12  78 NE5       30.30S WCI  11
DODGE CENTER   CLEAR     16  12  86 N5        30.27S WCI   9
WINONA         CLOUDY    21  14  73 N5        30.32S WCI  15
AUSTIN         CLOUDY    19  16  86 NE7       30.27S WCI  10
PRESTON        MOCLDY    15  12  87 N5        30.27R WCI   8
$$
ABBREVIATIONS USED IN REMARKS
   TC - TEMPERATURES IN CELSIUS
  WCI - WIND CHILL INDEX
   HX - HEAT INDEX
  VSB - VISIBILITY
$$



USA.gov is the U.S. government's official web portal to all federal, state and local government web resources and services.